Date String (YYYY-MM-DD hh:mm:ss) UTC,Instrument flags,Ambient pressure (hPa),Sample flow (lpm),Bypass flow (lpm),Sample temperature (°C),Ambient temperature (°C),ASC tube jacket temperature (°C),LED temperature (°C),Box temperature (°C),Sample RH (%),Span deviation,Mass concentration (μg/m³),Mass concentration (μg/m³),Mass concentration (μg/m³)
DateTimeUTC,F1_M11,P_M11,Q1_M11,Q2_M11,T1_M11,T2_M11,T3_M11,T4_M11,T5_M11,U1_M11,ZSPAN_M11,X0_M11,X2_M11,X1_M11
2022-11-03 11:00:00,,0816.8,5.00,0.00,26.8,25.2,00.0,35.6,28.7,08.3,0000.0,0012.10,0003.21,0001.80
2022-11-03 11:01:00,,0816.9,5.01,0.00,26.8,25.2,00.0,35.6,28.7,08.3,0000.0,0012.53,0003.24,0001.81
2022-11-03 11:02:00,,0817.2,5.00,0.00,26.8,25.2,00.0,35.6,28.7,08.3,0000.0,0012.73,0003.27,0001.83
2022-11-03 11:03:00,,0816.9,4.99,0.00,26.8,25.3,00.0,35.6,28.7,08.3,0000.0,0011.83,0003.30,0001.86
2022-11-03 11:04:00,,0816.9,5.00,0.00,26.8,25.3,00.0,35.6,28.7,08.3,0000.0,0011.45,0003.29,0001.88
2022-11-03 11:05:00,,0816.9,4.99,0.00,26.8,25.3,00.0,35.6,28.7,08.4,0000.0,0010.82,0003.25,0001.90
2022-11-03 11:06:00,,0816.9,5.00,0.00,26.8,25.3,00.0,35.6,28.7,08.4,0000.0,0010.23,0003.26,0001.92
2022-11-03 11:07:00,,0817.4,5.00,0.00,26.8,25.3,00.0,35.6,28.7,08.4,0000.0,0009.92,0003.32,0001.93
2022-11-03 11:08:00,,0817.2,5.00,0.00,26.8,25.3,00.0,35.6,28.7,08.4,0000.0,0010.34,0003.35,0001.95
2022-11-03 11:09:00,,0816.9,4.99,0.00,26.8,25.3,00.0,35.6,28.7,08.4,0000.0,0010.38,0003.35,0001.96
2022-11-03 11:10:00,,0816.9,5.00,0.00,26.8,25.3,00.0,35.6,28.7,08.4,0000.0,0011.27,0003.41,0001.97
2022-11-03 11:11:00,,0816.9,5.00,0.00,26.8,25.3,00.0,35.6,28.7,08.4,0000.0,0011.25,0003.49,0002.00
2022-11-03 11:12:00,,0816.9,5.00,0.00,26.8,25.3,00.0,35.6,28.8,08.4,0000.0,0011.07,0003.55,0002.02
2022-11-03 11:13:00,,0816.9,5.00,0.00,26.8,25.3,00.0,35.6,28.7,08.4,0000.0,0011.69,0003.56,0002.03
2022-11-03 11:14:00,,0817.3,5.00,0.00,26.8,25.3,00.0,35.6,28.7,08.4,0000.0,0012.37,0003.55,0002.05
2022-11-03 11:15:00,,0817.4,5.00,0.00,26.8,25.3,00.0,35.6,28.7,08.4,0000.0,0012.88,0003.60,0002.09
2022-11-03 11:16:00,,0817.5,5.01,0.00,26.8,25.2,00.0,35.6,28.7,08.5,0000.0,0013.01,0003.61,0002.10
2022-11-03 11:17:00,,0817.0,5.01,0.00,26.8,25.2,00.0,35.6,28.7,08.5,0000.0,0013.50,0003.62,0002.12
2022-11-03 11:18:00,,0817.0,4.98,0.00,26.8,25.3,00.0,35.6,28.7,08.5,0000.0,0013.87,0003.62,0002.14
2022-11-03 11:19:00,,0817.0,5.00,0.00,26.8,25.3,00.0,35.6,28.8,08.5,0000.0,0013.06,0003.58,0002.14
2022-11-03 11:20:00,,0817.0,5.01,0.00,26.8,25.2,00.0,35.6,28.7,08.4,0000.0,0014.31,0003.57,0002.14
2022-11-03 11:21:00,,0817.1,5.01,0.00,26.8,25.3,00.0,35.6,28.8,08.5,0000.0,0013.78,0003.55,0002.15
2022-11-03 11:22:00,,0817.2,5.00,0.00,26.8,25.3,00.0,35.6,28.8,08.5,0000.0,0013.70,0003.51,0002.15
2022-11-03 11:23:00,,0817.2,5.00,0.00,26.8,25.3,00.0,35.6,28.7,08.5,0000.0,0013.50,0003.44,0002.17
2022-11-03 11:24:00,,0817.3,5.00,0.00,26.8,25.3,00.0,35.6,28.7,08.5,0000.0,0012.97,0003.45,0002.20
2022-11-03 11:25:00,,0817.4,5.00,0.00,26.8,25.3,00.0,35.6,28.7,08.5,0000.0,0012.78,0003.49,0002.23
2022-11-03 11:26:00,,0817.4,5.00,0.00,26.8,25.2,00.0,35.6,28.7,08.5,0000.0,0012.25,0003.48,0002.24
2022-11-03 11:27:00,,0817.4,5.00,0.00,26.8,25.2,00.0,35.6,28.7,08.5,0000.0,0012.14,0003.49,0002.26
2022-11-03 11:28:00,,0817.4,4.99,0.00,26.8,25.2,00.0,35.6,28.7,08.6,0000.0,0012.37,0003.50,0002.29
2022-11-03 11:29:00,,0817.3,5.01,0.00,26.8,25.2,00.0,35.6,28.7,08.6,0000.0,0011.76,0003.51,0002.34
2022-11-03 11:30:00,,0817.3,5.01,0.00,26.8,25.2,00.0,35.6,28.7,08.6,0000.0,0011.60,0003.57,0002.40
2022-11-03 11:31:00,,0817.3,5.00,0.00,26.8,25.1,00.0,35.6,28.7,08.6,0000.0,0010.38,0003.64,0002.47
2022-11-03 11:32:00,,0817.3,4.99,0.00,26.8,25.1,00.0,35.6,28.7,08.7,0000.0,0011.14,0003.68,0002.51
2022-11-03 11:33:00,,0817.2,5.00,0.00,26.8,25.1,00.0,35.6,28.7,08.7,0000.0,0011.92,0003.69,0002.54
2022-11-03 11:34:00,,0817.1,5.00,0.00,26.8,25.1,00.0,35.6,28.6,08.7,0000.0,0012.35,0003.70,0002.56
2022-11-03 11:35:00,,0817.1,5.01,0.00,26.8,25.2,00.0,35.6,28.7,08.7,0000.0,0012.30,0003.73,0002.59
2022-11-03 11:36:00,,0817.1,5.00,0.00,26.8,25.2,00.0,35.5,28.7,08.7,0000.0,0012.72,0003.73,0002.62
2022-11-03 11:37:00,,0817.1,5.00,0.00,26.8,25.2,00.0,35.5,28.6,08.8,0000.0,0013.63,0003.74,0002.63
2022-11-03 11:38:00,,0817.1,5.01,0.00,26.8,25.2,00.0,35.5,28.6,08.9,0000.0,0013.90,0003.77,0002.65
2022-11-03 11:39:00,,0817.1,5.00,0.00,26.7,25.2,00.0,35.5,28.6,08.9,0000.0,0013.43,0003.80,0002.67
2022-11-03 11:40:00,,0817.1,4.99,0.00,26.7,25.2,00.0,35.5,28.6,08.9,0000.0,0013.16,0003.80,0002.65
2022-11-03 11:41:00,,0817.1,5.00,0.00,26.7,25.2,00.0,35.5,28.6,08.9,0000.0,0013.39,0003.81,0002.63
2022-11-03 11:42:00,,0817.2,5.00,0.00,26.7,25.2,00.0,35.5,28.6,08.9,0000.0,0013.73,0003.79,0002.61
2022-11-03 11:43:00,,0817.3,4.99,0.00,26.7,25.2,00.0,35.5,28.6,09.0,0000.0,0013.28,0003.75,0002.60
2022-11-03 11:44:00,,0817.4,5.00,0.00,26.7,25.2,00.0,35.5,28.6,09.0,0000.0,0012.04,0003.72,0002.60
2022-11-03 11:45:00,,0817.4,5.01,0.00,26.7,25.2,00.0,35.5,28.6,09.0,0000.0,0011.29,0003.74,0002.60
2022-11-03 11:46:00,,0817.4,5.01,0.00,26.7,25.1,00.0,35.5,28.6,09.1,0000.0,0012.01,0003.75,0002.60
2022-11-03 11:47:00,,0817.5,4.99,0.00,26.7,25.1,00.0,35.5,28.6,09.2,0000.0,0012.49,0003.75,0002.59
2022-11-03 11:48:00,,0817.6,5.01,0.00,26.7,25.1,00.0,35.5,28.6,09.2,0000.0,0011.38,0003.77,0002.57
2022-11-03 11:49:00,,0817.7,5.00,0.00,26.7,25.1,00.0,35.5,28.6,09.3,0000.0,0011.27,0003.77,0002.58
2022-11-03 11:50:00,,0817.7,4.99,0.00,26.7,25.1,00.0,35.5,28.6,09.4,0000.0,0011.63,0003.79,0002.57
2022-11-03 11:51:00,,0817.8,5.00,0.00,26.7,25.1,00.0,35.5,28.6,09.5,0000.0,0012.06,0003.78,0002.56
2022-11-03 11:52:00,,0817.8,5.00,0.00,26.7,25.1,00.0,35.5,28.6,09.5,0000.0,0012.28,0003.74,0002.57
2022-11-03 11:53:00,,0817.9,5.00,0.00,26.7,25.1,00.0,35.5,28.5,09.5,0000.0,0012.19,0003.73,0002.58
2022-11-03 11:54:00,,0818.0,5.00,0.00,26.7,25.0,00.0,35.5,28.5,09.5,0000.0,0012.58,0003.76,0002.58
2022-11-03 11:55:00,,0818.0,5.00,0.00,26.7,25.0,00.0,35.5,28.5,09.6,0000.0,0012.43,0003.77,0002.58
2022-11-03 11:56:00,,0818.0,5.00,0.00,26.7,25.0,00.0,35.5,28.5,09.6,0000.0,0012.44,0003.80,0002.59
2022-11-03 11:57:00,,0818.1,5.00,0.00,26.7,25.0,00.0,35.5,28.5,09.6,0000.0,0011.43,0003.78,0002.60
2022-11-03 11:58:00,,0818.3,5.00,0.00,26.7,25.0,00.0,35.4,28.5,09.5,0000.0,0010.78,0003.76,0002.62
2022-11-03 11:59:00,,0818.4,5.00,0.00,26.7,25.0,00.0,35.4,28.5,09.5,0000.0,0010.91,0003.70,0002.62
